Regional Weather Roundup
Issued by NWS

Home | Current Version | Previous Version | Graphics & Text | Print | Product List | Glossary On
Versions: 1 2 3 4 5 6 7 8 9 10 11 12 13 14 15 16 17 18 19 20 21 22 23 24 25 26 27 28 29 30 31 32 33 34 35 36 37 38 39 40 41 42 43 44 45 46 47 48 49 50
000
ASUS45 KBOI 011310
RWRID

IDAHO REGIONAL WEATHER ROUNDUP
NATIONAL WEATHER SERVICE BOISE ID
700 AM MDT WED JUL 01 2015

NOTE: "FAIR" INDICATES FEW OR NO CLOUDS BELOW 12000 FEET
WITH NO SIGNIFICANT WEATHER AND/OR OBSTRUCTIONS TO VISIBILITY

IDZ012-014-011400-
SOUTHWEST IDAHO


CITY           SKY/WX    TMP DP  RH WIND       PRES   REMARKS
BOISE          CLEAR     71  52  50 CALM      30.00R
CALDWELL       CLEAR     70  48  46 W7        30.00S
MOUNTAIN HOME  CLEAR     72  48  41 NW8       29.99R
$$

IDZ016-017-011400-
SOUTHCENTRAL IDAHO


CITY           SKY/WX    TMP DP  RH WIND       PRES   REMARKS
BURLEY         PTCLDY    67  57  70 SW3       30.07R
JEROME         PTCLDY    69  53  56 SE6       30.07R
TWIN FALLS     PTCLDY    74  50  42 S10       30.06R
$$

IDZ019>023-011400-
SOUTHEAST IDAHO


CITY           SKY/WX    TMP DP  RH WIND       PRES   REMARKS
IDAHO FALLS    MOSUNNY   58  56  93 CALM      30.12R
POCATELLO      CLEAR     65  57  75 N3        30.10R
REXBURG        MOSUNNY   60  53  77 NE6       30.13R
$$

IDZ006-010-011-018-031-032-011400-
CENTRAL IDAHO MOUNTAINS


CITY           SKY/WX    TMP DP  RH WIND       PRES   REMARKS
MCCALL         CLEAR     57  50  77 CALM      30.15R
HAILEY         PTCLDY    61  45  55 W12       30.17R
STANLEY          N/A     46  37  71 CALM      30.29S
SALMON         CLEAR     55  50  82 CALM      30.11S
CHALLIS        CLEAR     63  46  54 CALM      30.17R
$$

IDZ002-004-006-007-026-011400-
NORTHERN IDAHO


CITY           SKY/WX    TMP DP  RH WIND       PRES   REMARKS
LEWISTON       CLEAR     70  46  42 CALM      29.97R
LOWELL           N/A     62  56  80 NW3       30.05R
COEUR D`ALENE  CLEAR     63  52  67 N6        29.99S
MULLAN PASS    CLEAR     64  41  42 VRB3      30.21S
$$



USA.gov is the U.S. government's official web portal to all federal, state and local government web resources and services.